Volver al catálogo

SL-12 R/B(2)

ActivoMEO
NORAD 28119·ROCKET BODY·🇷🇺 Russia

Lanzado Nov 24, 2003 desde Baikonur Cosmodrome

Loading…

Próximos Pases (próximas 24 horas)

TLE

ActualizadoSource: Space-Track

Época: Sep 14, 2026, 21:00 UTC

1 28119U 03053E   26257.87554720 -.00000159  00000-0  00000-0 0  9998
2 28119  13.7515  12.6571 0218464 305.7037  65.9822  1.00028081 85620

Sigue SL-12 R/B(2) en tiempo real con AllMySat

Download on the App Store